Location: Newark
(3.3223°N, 76.2348°W)
Time: 16:09:32
(UTC+00:00)

N. Korean satellite - Visible Passes

Search period start: 18 November 2019 00:00
Search period end: 28 November 2019 00:00
Orbit: 456 x 506 km, 97.2° (Epoch: 17 November)

Date Brightness Start Highest point End Pass type
(mag) Time Alt. Az. Time Alt. Az. Time Alt. Az.
18 Nov 9.8 09:56:27 10° ENE 09:58:50 17° E 10:01:13 10° SE visible
18 Nov 9.9 23:18:43 10° SW 23:20:54 16° W 23:23:06 10° WNW visible
21 Nov 8.7 10:12:47 10° NE 10:16:01 32° E 10:19:11 10° SSE visible
22 Nov 10.1 09:49:06 10° ENE 09:50:40 12° E 09:52:12 10° SE visible
22 Nov 9.7 23:09:57 10° SSW 23:12:43 21° W 23:15:29 10° NW visible
24 Nov 7.0 10:29:36 10° NNE 10:33:09 66° E 10:36:38 10° S visible
25 Nov 9.3 10:04:55 10° NE 10:07:48 23° E 10:10:38 10° SSE visible
25 Nov 10.3 23:28:40 10° WSW 23:29:51 11° W 23:31:01 10° W visible
